Home   Weather   Eberswalde   Past weeks

Flag for Germany Past Weather in Eberswalde, Brandenburg, Germany — Yesterday and Last 2 Weeks

Now
48 °F

Fog.


Feels Like: 48 °F
Forecast: 46 / 60 °F
Wind: No wind

Location: Berlin-Tegel

Current Time: Oct 1, 2016 at 1:59:49 AM

Latest Report: Oct 1, 2016 at 1:20 AM


Visibility: N/A

Pressure: 29.95 "Hg

Humidity: 100%

Dew Point: 48 °F

Location of EberswaldeLocation

Past Weather in Eberswalde — Graph

°F

Eberswalde Temperature Yesterday

Maximum temperature yesterday: 68 °F (at 12:20 AM)
Minimum temperature yesterday: 52 °F (at 11:50 PM)
Average temperature yesterday: 61 °F

High & Low Weather Summary for the Past Weeks

 TemperatureHumidityPressure
High82 °F (Sep 16, 4:20 PM)100% (Sep 30, 11:50 PM)30.30 "Hg (Sep 30, 11:50 PM)
Low45 °F (Sep 20, 6:50 AM)30% (Sep 22, 2:50 PM)29.80 "Hg (Sep 29, 6:50 PM)
Average61 °F63%30.08 "Hg
* Reported Sep 16 12:20 AM — Oct 1 12:20 AM, Eberswalde, Weather by CustomWeather, © 2016

Note: Actual official high and low records may vary slightly from our data, if they occured in-between our weather recording intervals... More about our weather records

Advertising

Eberswalde Weather History for the Previous 24 Hours

Scroll right to see more
 ConditionsComfort  
Time TempWeatherWind HumidityBarometerVisibility
12:20 AM
Sat, Oct 1
52 °FFog.1 mph94%29.98 "HgN/A
11:50 PM
Fri, Sep 30
52 °FClear.1 mph100%29.98 "Hg10 mi
11:20 PM54 °FPassing clouds.5 mph88%29.95 "HgN/A
10:50 PM54 °FClear.3 mph88%29.95 "Hg10 mi
10:20 PM55 °FPassing clouds.3 mph94%29.95 "HgN/A
9:50 PM54 °FClear.6 mph94%29.95 "Hg10 mi
9:20 PM55 °FClear.3 mph88%29.95 "Hg10 mi
8:50 PM55 °FClear.5 mph82%29.95 "Hg10 mi
8:20 PM57 °FClear.6 mph82%29.95 "Hg10 mi
7:50 PM59 °FClear.7 mph77%29.95 "Hg10 mi
7:20 PM61 °FClear.8 mph72%29.92 "Hg10 mi
6:50 PM63 °FPassing clouds.9 mph68%29.92 "HgN/A
6:20 PM63 °FPartly sunny.10 mph68%29.89 "HgN/A
5:50 PM64 °FPartly sunny.10 mph60%29.89 "HgN/A
5:20 PM66 °FPartly sunny.8 mph52%29.89 "HgN/A
4:50 PM66 °FPartly sunny.12 mph52%29.89 "HgN/A
4:20 PM66 °FPartly sunny.12 mph52%29.89 "HgN/A
3:50 PM66 °FPartly sunny.12 mph52%29.89 "HgN/A
3:20 PM66 °FBroken clouds.9 mph56%29.89 "HgN/A
2:50 PM66 °FPartly sunny.10 mph52%29.89 "HgN/A
2:20 PM66 °FPartly sunny.13 mph52%29.89 "HgN/A
1:50 PM68 °FScattered clouds.12 mph46%29.89 "HgN/A
1:20 PM68 °FScattered clouds.12 mph49%29.92 "HgN/A
12:50 PM66 °FPassing clouds.13 mph52%29.92 "HgN/A
12:20 PM66 °FPartly sunny.14 mph56%29.92 "HgN/A
11:50 AM64 °FBroken clouds.15 mph64%29.92 "HgN/A
11:20 AM63 °FPartly sunny.15 mph64%29.92 "HgN/A
10:50 AM63 °FPartly sunny.12 mph73%29.92 "HgN/A
10:20 AM61 °FPartly sunny.10 mph77%29.92 "HgN/A
9:50 AM61 °FLight rain. Partly sunny.12 mph72%29.92 "HgN/A
9:20 AM59 °FLight rain. Partly sunny.12 mph82%29.92 "HgN/A
8:50 AM61 °FPartly sunny.10 mph72%29.89 "HgN/A
8:20 AM59 °FLight rain. Partly sunny.12 mph82%29.89 "HgN/A
7:50 AM59 °FLight rain. Partly sunny.10 mph77%29.89 "HgN/A
7:20 AM59 °FSunny.10 mph77%29.89 "Hg10 mi
6:50 AM59 °FClear.12 mph77%29.89 "Hg10 mi
6:20 AM61 °FClear.10 mph72%29.89 "Hg10 mi
5:50 AM59 °FClear.9 mph72%29.89 "Hg10 mi
5:20 AM59 °FClear.9 mph72%29.86 "Hg10 mi
4:50 AM59 °FPassing clouds.9 mph77%29.86 "HgN/A
4:20 AM59 °FPassing clouds.10 mph77%29.86 "HgN/A
3:50 AM59 °FPassing clouds.10 mph77%29.86 "HgN/A
3:20 AM57 °FLight rain. Passing clouds.7 mph88%29.89 "HgN/A
2:50 AM57 °FPassing clouds.7 mph82%29.89 "HgN/A
2:20 AM59 °FLight rain. Passing clouds.13 mph77%29.89 "HgN/A
1:50 AM59 °FLight rain. Passing clouds.15 mph77%29.89 "HgN/A
1:20 AM59 °FPassing clouds.16 mph82%29.86 "HgN/A
Weather by CustomWeather, © 2016

See weather overviewHow to use our weather pages